Sturgis, MI

4:05 PM EDT on September 25, 2016 (GMT -0400)
Kirsch Municipal

Weather History for KIRS - September, 2013

Change the Weather History Date:

Wednesday, September 4, 2013

  Actual Average (KHAI) Record (KHAI)
Temperature  
Mean Temperature 64 °F -  
Max Temperature 78 °F 79 °F 92 °F (1960)
Min Temperature 51 °F 55 °F 39 °F (1974)
Growing Degree Days 14 (Base 50)    
Moisture  
Dew Point 55 °F    
Average Humidity 76    
Maximum Humidity 100    
Minimum Humidity 44    
Precipitation  
Precipitation 0.00 in - - ()
Sea Level Pressure  
Sea Level Pressure 30.10 in    
Wind  
Wind Speed 2 mph (West)    
Max Wind Speed 12 mph    
Max Gust Speed 17 mph    
Visibility 8 miles    
Events Fog    
Averages and records for this station are not official NWS values.
T = Trace of Precipitation, MM = Missing Value Source: NWS Daily Summary

Daily Weather History Graph

Daily Weather History Graph

Search for Another Location

Airport or City:

Trip Planner

Search our weather history database for the weather conditions in past years. The results will help you decide how hot, cold, wet, or windy it might be!

Date:

Astronomy

Sep. 04, 2013 Rise Set
Actual Time 7:10 AM EDT 8:09 PM EDT
Civil Twilight 6:42 AM EDT 8:38 PM EDT
Nautical Twilight 6:08 AM EDT 9:11 PM EDT
Astronomical Twilight 5:33 AM EDT 9:47 PM EDT
Moon 6:22 AM EDT (9/4) 7:28 PM EDT (9/4)
Length of Visible Light 13h 55m
Length of Day
12h 58m
Waning Crescent, 1% of the Moon is Illuminated
Sep 4
Waning Crescent
Sep 5
New
Sep 12
First Quarter
Sep 19
Full
Sep 26
Last Quarter

Hourly Weather History & Observations

Time (EDT) Temp. Dew Point Humidity Pressure Visibility Wind Dir Wind Speed Gust Speed Precip Events Conditions
12:15 AM 55.4 °F 53.6 °F 94% 30.06 in 10.0 mi Calm Calm - N/A   Clear
12:34 AM 55.4 °F 53.6 °F 94% 30.06 in 10.0 mi Calm Calm - N/A   Clear
12:55 AM 55.4 °F 53.6 °F 94% 30.06 in 10.0 mi Calm Calm - N/A   Clear
1:14 AM 55.4 °F 53.6 °F 94% 30.06 in 10.0 mi Calm Calm - N/A   Clear
1:35 AM 55.4 °F 53.6 °F 94% 30.06 in 10.0 mi Calm Calm - N/A   Clear
1:55 AM 55.4 °F 53.6 °F 94% 30.06 in 10.0 mi Calm Calm - N/A   Clear
2:14 AM 53.6 °F 51.8 °F 94% 30.06 in 7.0 mi Calm Calm - N/A   Clear
2:35 AM 53.6 °F 53.6 °F 100% 30.07 in 10.0 mi Calm Calm - N/A   Clear
2:55 AM 53.6 °F 53.6 °F 100% 30.07 in 10.0 mi Calm Calm - N/A   Clear
3:14 AM 53.6 °F 51.8 °F 94% 30.08 in 7.0 mi Calm Calm - N/A   Clear
3:35 AM 53.6 °F 53.6 °F 100% 30.08 in 7.0 mi Calm Calm - N/A   Clear
3:54 AM 53.6 °F 53.6 °F 100% 30.08 in 7.0 mi Calm Calm - N/A   Clear
4:15 AM 53.6 °F 53.6 °F 100% 30.08 in 2.5 mi Calm Calm - N/A   Clear
4:35 AM 53.6 °F 53.6 °F 100% 30.08 in 3.0 mi Calm Calm - N/A   Clear
4:54 AM 51.8 °F 51.8 °F 100% 30.08 in 0.5 mi Calm Calm - N/A Fog Fog
5:15 AM 51.8 °F 51.8 °F 100% 30.09 in 1.2 mi Calm Calm - N/A   Mist
5:34 AM 53.6 °F 51.8 °F 94% 30.09 in 3.0 mi Calm Calm - N/A   Clear
5:55 AM 53.6 °F 51.8 °F 94% 30.09 in 1.8 mi Calm Calm - N/A   Mist
6:14 AM 53.6 °F 51.8 °F 94% 30.09 in 3.0 mi Calm Calm - N/A   Clear
6:34 AM 53.6 °F 53.6 °F 100% 30.09 in 1.2 mi Calm Calm - N/A   Mist
6:55 AM 51.8 °F 51.8 °F 100% 30.10 in 2.5 mi Calm Calm - N/A   Clear
7:14 AM 51.8 °F 51.8 °F 100% 30.10 in 2.0 mi Calm Calm - N/A   Clear
7:34 AM 53.6 °F 51.8 °F 94% 30.11 in 2.5 mi Calm Calm - N/A   Clear
7:55 AM 53.6 °F 53.6 °F 100% 30.11 in 4.0 mi Calm Calm - N/A   Clear
8:14 AM 53.6 °F 53.6 °F 100% 30.12 in 5.0 mi Calm Calm - N/A   Clear
8:35 AM 55.4 °F 55.4 °F 100% 30.12 in 7.0 mi Calm Calm - N/A   Clear
8:55 AM 57.2 °F 55.4 °F 94% 30.12 in 10.0 mi WSW 4.6 mph - N/A   Clear
9:14 AM 60.8 °F 57.2 °F 88% 30.12 in 10.0 mi WSW 4.6 mph - N/A   Clear
9:35 AM 64.4 °F 57.2 °F 77% 30.12 in 10.0 mi West 3.5 mph - N/A   Clear
9:54 AM 64.4 °F 57.2 °F 77% 30.12 in 10.0 mi Calm Calm - N/A   Clear
10:14 AM 66.2 °F 57.2 °F 73% 30.12 in 10.0 mi West 9.2 mph - N/A   Clear
10:35 AM 68.0 °F 59.0 °F 73% 30.12 in 10.0 mi West 3.5 mph - N/A   Clear
10:54 AM 69.8 °F 60.8 °F 73% 30.11 in 10.0 mi West 5.8 mph - N/A   Clear
11:14 AM 71.6 °F 60.8 °F 69% 30.11 in 10.0 mi West 10.4 mph 16.1 mph N/A   Clear
11:35 AM 71.6 °F 59.0 °F 64% 30.11 in 10.0 mi West 11.5 mph 16.1 mph N/A   Clear
11:54 AM 73.4 °F 60.8 °F 65% 30.11 in 10.0 mi WSW 10.4 mph 16.1 mph N/A   Clear
12:15 PM 73.4 °F 57.2 °F 57% 30.11 in 10.0 mi West 11.5 mph - N/A   Clear
12:35 PM 73.4 °F 57.2 °F 57% 30.11 in 10.0 mi West 9.2 mph - N/A   Clear
12:54 PM 75.2 °F 57.2 °F 53% 30.12 in 10.0 mi West 10.4 mph 16.1 mph N/A   Clear
1:15 PM 75.2 °F 55.4 °F 50% 30.11 in 10.0 mi West 10.4 mph 17.3 mph N/A   Clear
1:35 PM 77.0 °F 55.4 °F 47% 30.10 in 10.0 mi WNW 6.9 mph - N/A   Clear
1:54 PM 77.0 °F 55.4 °F 47% 30.11 in 10.0 mi West 10.4 mph 16.1 mph N/A   Clear
2:15 PM 78.8 °F 55.4 °F 44% 30.11 in 10.0 mi WSW 10.4 mph 17.3 mph N/A   Clear
2:35 PM 78.8 °F 57.2 °F 47% 30.11 in 10.0 mi WNW 11.5 mph 17.3 mph N/A   Clear
2:54 PM 78.8 °F 57.2 °F 47% 30.11 in 10.0 mi WNW 5.8 mph - N/A   Clear
3:15 PM 78.8 °F 55.4 °F 44% 30.10 in 10.0 mi WNW 9.2 mph 16.1 mph N/A   Clear
3:35 PM 78.8 °F 57.2 °F 47% 30.10 in 10.0 mi West 6.9 mph - N/A   Clear
3:54 PM 78.8 °F 55.4 °F 44% 30.09 in 10.0 mi West 8.1 mph - N/A   Clear
4:15 PM 78.8 °F 55.4 °F 44% 30.09 in 10.0 mi West 9.2 mph 16.1 mph N/A   Clear
4:35 PM 78.8 °F 55.4 °F 44% 30.09 in 10.0 mi West 9.2 mph - N/A   Clear
4:55 PM 78.8 °F 55.4 °F 44% 30.08 in 10.0 mi WNW 9.2 mph - N/A   Clear
5:15 PM 78.8 °F 55.4 °F 44% 30.08 in 10.0 mi WSW 10.4 mph - N/A   Clear
5:34 PM 78.8 °F 55.4 °F 44% 30.08 in 10.0 mi West 9.2 mph - N/A   Clear
5:55 PM 77.0 °F 53.6 °F 44% 30.08 in 10.0 mi WNW 8.1 mph - N/A   Clear
6:15 PM 77.0 °F 55.4 °F 47% 30.09 in 10.0 mi West 11.5 mph - N/A   Clear
6:34 PM 75.2 °F 55.4 °F 50% 30.09 in 10.0 mi West 6.9 mph - N/A   Clear
6:55 PM 73.4 °F 55.4 °F 53% 30.08 in 10.0 mi West 5.8 mph - N/A   Clear
7:15 PM 71.6 °F 55.4 °F 57% 30.09 in 10.0 mi West 5.8 mph - N/A   Clear
7:34 PM 71.6 °F 55.4 °F 57% 30.09 in 10.0 mi West 4.6 mph - N/A   Clear
7:55 PM 71.6 °F 55.4 °F 57% 30.09 in 10.0 mi Calm Calm - N/A   Clear
8:15 PM 68.0 °F 55.4 °F 64% 30.09 in 10.0 mi Calm Calm - N/A   Clear
8:34 PM 64.4 °F 57.2 °F 77% 30.10 in 3.0 mi Calm Calm - N/A   Haze
8:55 PM 64.4 °F 57.2 °F 77% 30.10 in 10.0 mi Calm Calm - N/A   Clear
9:15 PM 62.6 °F 57.2 °F 82% 30.11 in 10.0 mi Calm Calm - N/A   Clear
9:34 PM 62.6 °F 57.2 °F 82% 30.12 in 10.0 mi Calm Calm - N/A   Clear
9:55 PM 62.6 °F 57.2 °F 82% 30.12 in 10.0 mi Calm Calm - N/A   Clear
10:14 PM 62.6 °F 57.2 °F 82% 30.12 in 10.0 mi Calm Calm - N/A   Clear
10:34 PM 60.8 °F 57.2 °F 88% 30.12 in 10.0 mi Calm Calm - N/A   Clear
10:55 PM 60.8 °F 57.2 °F 88% 30.12 in 10.0 mi Calm Calm - N/A   Clear
11:14 PM 60.8 °F 57.2 °F 88% 30.12 in 10.0 mi Calm Calm - N/A   Clear
11:35 PM 60.8 °F 57.2 °F 88% 30.13 in 10.0 mi Calm Calm - N/A   Clear
11:55 PM 59.0 °F 57.2 °F 94% 30.13 in 10.0 mi Calm Calm - N/A   Clear